Theta_e
348 347 346 345 344 343 341 340 341 340 339 338 338 339 339 338 334 330 330 331 334 338 343 340 344 358 363 361 362 356 352 356 361 361 364 364 363 359 357 358 360 364 367 369 371 373 373 373 372 371 371 372 371 371 370 370 370 369 369 367 368 367 367 366 363 359 358 357 358 360 360 359 359 359
341 342 341 340 339 341 341 341 341 341 340 338 339 340 342 342 338 335 332 332 335 337 341 344 342 350 359 362 360 356 353 358 357 354 360 362 362 359 358 357 356 357 358 360 363 366 368 370 371 371 371 371 371 370 371 371 370 370 370 369 368 368 367 364 361 358 357 356 357 358 358 359 358 357
341 340 340 340 340 341 342 342 342 343 343 342 343 342 342 340 339 337 335 330 335 341 338 342 348 348 350 359 358 361 358 358 357 353 356 358 361 360 359 358 356 354 354 354 356 360 364 367 371 372 372 371 370 369 369 369 369 369 369 369 368 368 366 361 358 357 357 356 356 356 357 358 358 356
342 340 340 341 341 342 342 342 343 343 343 343 341 341 341 341 341 340 337 334 335 342 343 344 347 350 351 352 351 352 356 364 361 355 357 358 360 359 358 357 356 354 352 350 351 352 357 363 367 370 371 371 370 369 369 369 369 369 369 369 368 367 363 358 357 356 356 356 355 356 356 356 356 354
339 338 336 336 337 338 338 339 340 340 341 341 342 343 342 341 342 342 340 338 339 343 347 347 347 350 351 349 350 350 351 353 354 356 355 356 356 357 357 357 353 352 351 350 349 348 349 355 361 366 370 370 370 370 369 368 367 368 367 366 365 362 358 356 356 356 355 355 355 355 355 355 354 352
338 338 337 337 338 339 339 340 340 341 341 341 340 339 340 340 340 343 343 342 341 339 342 345 349 349 352 349 351 350 350 350 354 353 354 356 355 354 355 355 355 352 351 349 348 348 347 349 353 359 365 369 370 370 369 367 366 365 363 361 359 356 354 354 354 355 354 353 353 353 352 353 352 351
336 337 338 338 339 340 339 339 340 340 339 339 338 339 340 340 340 341 343 341 340 340 341 345 345 346 347 348 349 350 351 352 352 352 352 353 355 355 354 354 355 351 349 348 348 347 346 346 348 351 356 361 365 365 364 362 359 356 354 353 351 350 351 351 350 352 352 351 351 350 350 350 351 349
336 336 336 337 337 338 338 339 340 340 341 340 340 339 340 340 340 342 343 345 343 341 340 340 344 344 344 345 348 350 352 351 352 351 352 352 353 353 355 354 354 353 351 349 348 346 345 344 343 344 346 350 355 357 354 351 349 347 347 347 347 348 348 347 346 347 348 349 349 349 348 349 349 347
339 338 338 339 339 339 338 338 338 339 339 340 340 340 340 341 341 342 343 343 344 342 340 341 343 345 345 346 347 349 348 348 347 346 348 349 350 352 355 357 358 354 352 350 349 347 346 345 343 342 341 342 344 346 346 346 345 343 343 343 343 344 344 343 342 342 343 343 343 343 344 344 344 343
341 341 340 341 341 341 340 340 341 340 340 340 340 339 339 340 341 341 341 342 342 343 343 343 342 342 344 344 345 347 348 346 345 344 345 345 346 347 349 353 358 359 358 356 355 349 347 344 342 343 342 340 340 341 343 344 343 342 340 340 340 341 341 340 339 338 338 338 339 339 340 341 341 341
340 340 341 341 342 342 342 341 341 341 341 341 340 341 341 341 340 340 340 341 341 341 341 342 342 342 343 343 342 344 345 346 345 343 341 342 345 346 347 347 352 355 357 355 354 354 353 352 350 343 339 339 339 339 340 342 343 344 340 337 337 338 339 338 337 335 335 335 335 335 335 337 339 339
341 342 342 343 344 344 343 343 342 342 341 342 340 341 341 340 340 339 339 339 339 339 339 339 339 339 340 338 342 343 341 339 340 341 341 339 341 342 345 348 349 351 352 352 354 354 352 351 350 346 343 342 341 341 340 341 345 347 344 338 337 338 338 337 335 334 333 333 332 332 331 331 334 336
343 343 344 345 345 347 351 350 349 347 347 341 339 340 341 340 339 339 339 339 338 338 338 337 338 337 336 337 337 337 338 339 339 341 341 341 342 343 344 346 349 351 350 351 351 352 353 352 351 351 350 350 346 345 344 346 346 348 346 341 338 337 337 335 334 333 332 332 332 331 330 329 329 331
343 343 343 346 351 350 351 351 351 350 348 347 344 341 340 341 340 339 338 337 338 337 337 337 337 336 336 338 338 338 339 341 341 340 340 339 341 341 342 344 346 349 349 348 347 350 353 353 351 351 351 353 352 351 348 348 349 345 341 339 337 336 336 335 333 332 332 331 331 331 330 329 328 327
341 342 343 343 348 350 352 351 349 347 346 346 345 344 345 345 342 338 337 337 337 337 337 337 337 337 337 338 339 339 340 340 340 340 340 340 340 338 337 336 339 344 349 346 346 347 351 353 350 352 352 353 354 354 353 345 342 342 339 338 337 336 335 334 333 332 331 331 330 330 329 328 327 327
340 340 340 341 342 343 343 343 344 346 346 344 342 342 342 342 342 343 341 338 336 335 335 335 336 337 337 338 338 338 338 339 339 340 340 339 339 338 338 338 337 339 348 345 343 344 348 351 351 350 352 354 355 355 348 340 340 339 339 338 336 335 334 334 333 332 332 331 331 330 329 328 327 327
338 339 340 340 341 341 347 348 345 343 343 346 345 343 342 341 340 337 337 339 341 339 336 335 335 336 337 336 338 340 340 340 338 338 339 340 340 340 339 340 341 342 347 346 344 343 346 348 348 348 352 354 354 355 344 340 339 338 338 336 335 334 333 333 332 332 331 331 330 329 327 327 327 326
337 337 338 337 338 339 341 342 342 341 341 340 341 341 342 342 343 341 338 336 336 339 339 337 335 337 338 337 338 341 342 340 339 338 338 339 339 340 340 343 344 344 348 345 343 341 343 346 346 345 349 352 354 354 345 336 336 336 336 335 334 333 333 333 332 331 331 330 329 328 326 326 325 325
337 337 337 337 337 338 338 339 341 339 339 339 339 338 338 338 339 340 340 341 341 341 340 339 339 339 340 340 340 341 341 341 342 342 341 341 341 342 343 342 341 340 343 345 341 337 341 342 343 344 346 349 351 353 341 333 334 334 335 334 333 332 332 332 331 331 330 330 328 327 325 324 324 324
336 337 337 337 337 338 338 341 341 343 341 338 337 336 336 337 338 339 343 339 341 345 343 341 341 341 342 340 341 341 342 341 342 343 345 343 340 338 337 336 339 339 341 345 342 339 339 341 342 343 345 346 347 350 352 339 332 333 333 333 332 331 330 330 330 330 330 329 328 327 325 323 322 322
336 336 337 337 337 337 337 339 333 334 343 338 336 336 336 336 337 337 340 338 334 334 333 333 334 334 334 333 331 330 332 338 341 340 335 335 339 337 335 336 337 338 339 342 344 341 338 341 341 341 343 344 344 346 349 350 335 331 331 331 330 330 329 329 328 329 329 328 327 326 325 323 322 322
335 336 340 343 338 337 337 335 331 331 338 336 335 335 334 334 334 335 338 340 340 333 330 330 330 331 331 331 331 332 331 330 335 337 336 338 337 336 336 334 336 339 340 341 346 341 340 342 340 340 339 340 343 345 347 348 344 332 330 329 329 329 328 328 327 327 327 327 326 325 324 323 323 326
334 335 339 341 340 340 338 329 328 328 336 335 334 334 333 332 333 335 336 337 337 337 337 337 336 335 334 334 333 336 334 334 338 336 336 338 336 334 335 336 336 334 336 341 346 339 341 342 341 340 335 335 341 343 345 345 345 340 338 338 335 330 329 328 327 325 325 325 325 325 323 321 321 328
331 333 333 338 335 328 325 323 322 323 324 330 332 332 332 332 331 335 336 337 336 334 335 335 337 338 339 338 339 338 338 338 340 337 337 337 338 337 337 337 336 334 335 337 344 341 341 343 340 342 341 335 332 330 337 341 343 340 338 339 339 336 332 330 328 324 324 323 323 322 321 320 320 327
328 329 331 332 335 326 323 319 317 316 317 323 329 329 330 332 335 337 334 335 339 335 335 335 336 336 337 337 337 338 339 340 340 340 338 339 339 337 336 336 336 336 338 340 338 340 336 339 340 340 340 340 339 337 324 326 332 337 337 338 339 340 338 335 332 334 323 321 320 319 319 319 318 326
327 328 330 331 332 325 322 320 317 315 314 316 325 328 322 323 325 331 335 334 334 334 335 334 334 334 334 334 335 336 337 338 340 341 341 340 340 340 340 339 336 335 336 342 332 340 338 337 339 338 338 338 338 339 333 327 327 333 334 336 337 339 338 336 334 334 333 329 327 322 322 317 319 321
325 328 329 331 330 323 318 315 314 313 312 317 320 316 316 318 320 327 329 330 330 330 331 332 332 332 333 332 333 334 335 336 338 339 340 341 341 341 341 342 341 340 341 336 337 338 339 339 336 338 336 338 336 337 336 335 332 323 328 333 335 336 336 336 334 334 333 331 329 323 320 318 319 321
320 321 322 325 320 316 312 312 312 312 316 319 314 313 315 318 322 324 324 325 325 327 327 328 329 330 332 332 332 333 334 335 336 337 338 339 340 340 341 342 343 342 337 332 335 338 340 338 337 337 338 336 332 330 331 334 332 324 328 329 330 333 334 333 334 333 332 331 325 323 321 319 320 320
320 319 314 312 311 311 310 310 311 313 316 314 313 313 315 320 320 320 320 321 322 322 323 324 325 327 329 331 332 333 333 335 336 336 337 338 338 338 330 325 325 325 326 327 327 328 332 337 337 338 337 337 335 334 334 333 332 325 325 325 323 326 325 326 330 330 323 320 319 320 320 319 317 320
317 314 313 312 312 313 314 317 317 318 319 319 319 319 320 320 319 320 320 320 321 321 322 323 323 325 327 329 331 333 333 333 333 334 334 334 334 329 325 322 320 321 323 324 325 325 325 326 328 329 331 335 337 336 336 334 332 328 324 327 324 320 319 319 319 318 319 317 316 316 315 316 317 318
318 318 318 318 317 317 319 320 320 320 322 322 322 323 323 322 322 322 321 321 321 322 322 323 324 325 327 329 330 330 332 332 332 333 333 331 330 328 326 321 317 318 319 321 322 323 322 322 322 324 326 328 331 333 334 334 332 326 321 322 323 321 314 316 316 316 315 314 314 314 314 315 317 319
316 317 318 318 318 319 320 321 321 321 321 321 322 321 322 322 324 325 325 325 324 323 324 324 325 326 327 327 329 330 331 332 331 328 329 329 325 324 322 317 315 316 316 318 319 320 321 320 319 318 318 318 319 319 316 316 315 316 315 316 315 313 315 314 313 313 314 313 312 312 313 315 315 314
312 312 312 312 313 315 316 317 318 319 320 321 322 322 322 323 324 324 325 324 324 324 325 324 325 325 327 327 329 330 327 324 323 324 324 324 322 321 319 316 315 315 314 315 316 317 318 318 319 317 316 315 315 315 315 312 311 312 312 312 312 311 312 314 314 313 314 313 311 312 313 315 314 313
307 307 307 309 311 313 314 314 315 316 318 319 320 323 325 327 326 326 326 325 325 326 327 326 326 326 326 324 323 321 320 320 320 321 321 319 320 318 316 315 314 316 316 315 316 316 317 317 317 317 316 316 315 314 314 312 310 311 312 312 312 311 313 314 314 314 314 313 312 311 312 312 313 314
307 308 309 312 313 316 317 319 321 322 322 322 322 322 322 323 324 324 323 323 323 323 322 322 322 322 321 320 320 319 319 318 318 318 319 319 318 317 316 315 315 315 315 315 315 316 316 315 315 315 314 314 313 313 314 314 312 311 311 311 312 312 312 314 313 313 314 314 314 312 311 312 312 314
317 318 318 318 319 319 319 319 320 319 319 319 319 319 319 319 320 321 321 322 323 322 321 320 320 320 319 318 318 318 318 318 317 317 317 316 316 316 316 315 315 314 314 314 314 315 315 313 313 311 309 309 308 306 308 313 313 313 310 309 311 312 312 313 314 313 313 312 313 312 309 309 310 313
316 316 316 316 316 317 316 317 317 318 318 317 317 317 316 316 317 318 318 319 320 320 319 319 318 318 318 317 316 316 316 315 314 314 314 315 315 314 313 314 314 313 312 313 314 313 313 312 311 310 308 307 305 304 306 312 313 313 313 310 310 312 311 312 311 311 312 312 311 311 310 310 310 312
314 315 315 315 315 315 316 316 316 316 316 317 317 316 316 316 316 316 317 316 316 316 316 315 316 315 315 315 314 313 314 314 314 313 313 313 312 312 312 311 311 312 312 312 313 313 313 312 311 310 309 306 305 305 305 309 310 312 312 312 311 311 312 311 310 309 310 311 310 311 312 310 310 312
313 313 313 313 314 315 314 315 315 314 314 314 315 315 315 314 314 314 314 314 314 314 314 314 314 314 314 313 314 313 312 312 311 311 311 311 311 311 311 311 311 312 312 311 312 312 313 311 311 310 309 308 306 307 308 307 307 312 312 311 312 311 311 310 309 310 310 310 311 312 312 313 314 315
313 313 313 313 313 314 314 315 314 314 314 314 314 314 313 313 313 313 312 313 313 313 313 313 313 313 313 313 313 313 312 311 311 310 310 311 311 312 311 312 311 311 311 311 311 311 312 312 312 311 312 312 312 313 312 312 312 313 313 312 312 312 311 311 309 310 310 311 311 309 308 310 309 311
311 310 311 312 313 313 313 314 314 314 314 314 314 315 313 313 313 314 314 314 315 313 312 312 312 312 312 312 313 312 311 311 311 311 311 311 312 312 312 312 310 311 310 309 310 310 311 313 316 317 315 313 314 314 311 308 306 308 309 311 312 313 313 312 310 310 310 311 310 308 308 307 307 307
309 308 309 310 310 311 312 312 313 314 314 315 315 315 314 315 316 318 316 316 314 314 314 314 313 313 313 313 313 313 311 310 310 311 311 310 309 310 311 310 308 309 308 307 308 309 311 313 315 313 312 313 312 309 306 307 307 307 309 310 311 311 312 314 314 314 313 312 310 308 308 308 308 306
308 307 307 308 308 308 309 309 310 311 312 313 314 314 314 314 314 315 314 314 314 314 314 313 314 314 314 315 314 313 312 311 311 310 310 310 309 308 307 308 308 308 308 308 309 311 312 312 311 311 310 310 310 310 307 308 308 308 307 308 309 310 311 311 311 311 311 310 311 312 310 309 306 303
306 306 306 306 305 305 306 307 307 308 309 311 312 313 313 313 312 313 313 313 313 313 313 313 313 312 313 314 314 314 313 312 311 311 311 311 311 311 310 311 311 311 311 311 310 310 310 310 310 309 308 307 308 308 308 308 307 309 308 308 309 308 308 310 311 310 310 310 310 312 312 312 312 312
306 305 305 304 304 304 305 305 305 306 306 308 308 309 310 311 311 311 312 312 312 312 312 312 312 311 312 312 312 311 312 316 313 312 312 312 311 312 311 311 311 310 309 308 307 308 308 309 310 310 308 309 308 308 310 309 308 308 307 307 307 308 308 309 307 307 308 309 309 310 311 312 313 313
Wind_Speed
6 5 6 6 7 7 6 6 6 6 5 6 6 5 6 5 6 4 4 3 3 4 4 4 4 4 3 2 1 1 1 2 5 5 5 5 5 7 10 12 15 16 18 19 18 19 20 21 22 22 21 20 21 21 22 22 22 23 21 21 21 22 23 21 18 17 17 17 17 17 17 17 16 14
5 5 6 6 6 6 6 7 7 6 6 6 5 5 3 4 6 5 6 5 3 4 4 4 4 3 3 2 2 2 2 5 7 5 5 6 7 12 14 14 15 17 17 17 18 17 16 17 18 20 21 21 23 22 20 21 22 22 23 23 23 23 24 21 19 17 17 17 17 17 17 16 15 15
5 5 6 5 6 6 7 7 7 6 6 6 5 5 5 6 6 6 6 5 4 4 5 5 3 2 3 2 2 2 1 5 7 6 6 5 8 10 10 13 15 16 17 18 18 17 14 13 16 17 19 20 21 21 22 22 22 22 22 22 24 25 23 21 20 18 18 18 18 18 17 17 16 15
4 4 6 6 6 6 6 6 7 7 7 6 6 6 6 6 6 6 6 7 7 5 5 5 5 4 3 3 4 5 4 2 5 5 6 7 8 6 6 9 13 13 15 16 16 17 17 16 16 17 18 20 21 21 21 21 21 22 22 22 22 22 22 21 20 20 19 19 19 18 18 17 16 16
5 5 6 6 6 5 6 6 6 7 7 6 6 5 5 6 5 5 6 6 7 4 4 5 5 5 3 3 3 4 4 4 3 4 5 5 5 6 6 7 10 13 13 14 15 15 15 15 16 17 18 19 20 21 21 21 21 21 21 21 21 21 20 20 20 20 19 19 19 19 18 17 17 17
6 6 6 7 7 5 6 6 7 7 6 5 6 6 6 7 7 6 6 7 6 6 3 4 4 4 2 4 2 4 6 6 3 4 5 4 4 5 6 6 7 12 14 14 14 13 13 14 15 17 18 19 20 21 21 21 21 21 21 21 21 20 20 19 19 19 19 20 20 19 19 18 17 17
6 6 7 8 7 5 6 7 7 7 7 7 7 7 6 6 7 6 6 6 6 6 5 4 4 3 3 4 5 5 5 4 3 4 5 6 5 5 6 6 6 9 12 13 14 14 14 14 15 16 17 18 19 19 20 20 20 20 20 20 20 20 19 19 19 19 19 19 20 19 19 18 18 18
7 8 8 8 7 6 7 7 7 6 6 6 6 7 6 6 7 7 6 6 6 5 6 3 6 4 5 5 5 5 4 5 5 5 5 4 5 4 5 5 5 7 10 12 13 14 13 13 14 14 15 16 17 18 19 19 19 19 19 19 19 20 20 20 19 19 19 19 19 19 19 18 19 19
8 8 8 9 7 6 8 7 7 7 7 7 7 7 6 6 6 6 6 7 5 6 7 5 4 5 4 4 4 3 4 4 4 3 4 4 4 5 5 5 6 9 12 12 12 13 13 13 14 14 15 15 15 16 16 17 17 17 18 19 19 20 20 20 20 20 19 19 19 19 18 19 19 19
7 8 8 8 8 8 8 8 8 7 8 7 7 8 8 8 7 7 7 6 5 6 6 6 6 4 5 5 4 4 4 5 5 5 6 5 5 6 6 6 5 5 5 5 6 9 11 13 15 15 15 15 15 16 16 17 17 18 18 19 19 19 20 20 21 20 20 19 18 18 18 19 19 19
8 8 8 8 8 9 9 9 9 8 7 7 8 8 9 9 8 7 7 7 7 6 6 6 6 6 5 5 6 5 3 5 5 6 6 7 6 5 6 8 6 5 7 8 10 10 9 10 10 11 14 15 16 16 17 17 18 18 18 18 19 19 20 20 20 20 20 19 19 18 19 19 19 20
8 9 9 9 9 9 9 8 8 8 8 6 6 7 6 6 7 7 7 7 7 7 6 7 6 6 6 4 4 3 2 3 4 5 6 8 8 7 5 7 8 5 5 7 6 7 8 9 11 12 12 14 16 16 16 17 17 18 18 18 19 20 20 20 20 20 20 20 20 19 19 19 19 20
8 9 8 8 8 9 12 13 11 10 9 8 8 8 7 8 9 8 7 7 6 6 6 6 5 5 6 6 5 5 5 7 9 4 5 6 7 7 7 7 6 7 7 6 6 7 6 7 7 7 7 9 12 13 15 13 17 18 18 19 20 20 21 21 21 20 20 20 21 21 21 20 20 20
8 9 8 8 14 15 15 15 15 15 15 15 11 9 7 8 8 8 8 7 6 7 7 7 6 7 7 7 7 8 7 7 4 5 5 7 7 5 7 8 7 5 5 6 8 8 6 6 7 6 8 8 8 7 8 10 11 15 19 20 20 21 21 22 21 22 21 22 22 22 22 22 21 21
9 8 8 8 10 12 13 13 15 15 15 16 17 17 16 13 9 8 8 7 6 7 7 7 6 7 9 8 7 8 8 6 7 7 7 8 6 6 7 9 5 3 8 6 7 9 7 6 8 8 8 8 7 7 9 13 17 17 19 20 21 21 22 22 22 22 23 23 23 23 23 22 22 22
8 9 9 8 7 8 9 9 9 12 15 16 16 16 16 17 17 14 10 8 7 6 7 8 8 7 8 8 7 7 6 8 8 7 7 8 8 8 8 8 8 3 6 7 6 9 5 4 7 8 9 8 7 9 12 15 17 19 19 19 20 21 22 22 23 23 23 24 23 23 23 23 22 22
8 8 8 8 7 6 12 11 9 8 9 12 15 16 16 16 16 16 16 15 11 8 8 9 9 9 8 9 8 7 7 6 8 7 7 8 8 8 9 9 8 7 5 4 6 8 6 5 7 9 9 8 7 9 11 15 16 18 18 19 20 21 22 23 24 24 24 24 24 23 24 23 23 23
8 8 8 8 8 8 8 8 9 8 8 8 8 9 8 8 11 13 15 16 17 14 11 10 11 10 8 10 8 8 6 6 8 8 9 7 8 9 11 11 10 5 6 8 6 7 7 5 6 9 10 7 7 8 10 15 16 18 19 19 20 21 23 23 24 25 25 24 24 24 24 24 24 23
9 9 8 8 9 9 9 8 9 8 8 8 8 8 8 8 8 8 8 8 8 9 9 11 12 12 10 10 10 8 6 8 9 9 10 9 9 9 8 7 5 5 4 6 4 10 8 3 7 10 9 5 7 7 10 15 17 18 19 19 20 21 23 24 24 24 25 25 25 25 24 23 24 24
8 8 8 9 9 10 9 10 14 12 9 8 8 9 8 8 8 9 9 13 13 12 10 10 11 11 11 10 9 8 8 7 7 8 8 7 5 6 9 10 6 7 5 8 7 7 10 5 7 10 6 4 7 8 7 12 18 19 20 20 21 22 23 24 24 24 25 26 26 25 24 23 24 25
8 8 8 8 8 8 9 12 14 14 12 9 9 9 9 9 9 9 8 12 16 17 17 17 16 15 15 15 15 14 15 11 9 6 6 9 8 9 10 10 9 10 5 6 10 9 11 7 8 9 6 5 8 8 8 8 13 19 19 21 22 22 23 23 24 25 26 26 26 25 25 25 24 24
7 9 13 12 9 9 9 12 14 14 11 9 9 9 10 10 10 9 8 7 8 13 16 17 16 15 15 14 15 14 14 14 10 7 10 8 4 9 9 11 9 8 5 7 9 7 10 6 4 7 4 3 4 8 8 8 8 14 17 21 22 22 23 24 24 24 26 26 25 25 26 25 24 18
6 7 8 13 13 11 10 12 12 13 11 8 8 9 8 9 10 9 7 8 8 6 5 6 6 8 9 9 9 10 16 17 14 10 11 9 9 10 10 10 9 10 9 7 10 9 8 8 5 6 3 5 6 7 8 8 7 6 8 10 14 20 23 24 23 24 25 24 25 24 22 20 20 10
5 6 7 8 11 12 12 13 12 12 11 8 8 7 8 9 11 9 7 7 6 5 6 7 6 8 7 7 7 6 7 8 8 9 9 9 10 10 9 9 9 10 8 1 11 10 7 6 6 7 9 8 5 2 5 8 8 7 8 9 9 16 20 21 19 24 23 23 22 20 22 24 20 12
7 7 6 6 8 11 10 9 12 13 11 8 7 7 8 9 8 6 6 8 12 9 9 9 8 7 6 6 6 7 7 7 7 7 8 9 9 10 10 11 10 10 10 6 10 7 6 5 8 5 7 7 7 8 3 3 4 6 8 9 10 10 8 11 10 11 16 21 20 23 23 22 25 18
7 7 6 6 7 9 10 10 10 10 8 7 5 7 9 9 8 7 6 6 6 7 7 8 8 8 8 8 8 8 9 9 8 8 8 9 9 10 11 11 11 10 11 7 16 10 8 7 8 8 7 7 9 9 6 3 5 7 6 7 9 9 9 9 9 10 9 10 12 15 17 22 24 26
7 5 6 7 9 10 10 9 9 8 8 5 6 9 9 8 8 8 6 6 7 8 8 8 9 10 9 9 9 9 9 9 8 8 8 9 9 9 10 11 11 12 9 1 8 10 10 7 4 8 8 7 10 8 8 8 6 0 3 7 8 8 6 8 9 10 10 9 10 18 21 22 26 27
8 8 8 8 12 13 13 12 10 9 9 8 11 10 11 10 10 7 8 8 9 10 10 11 11 11 10 9 10 10 9 8 7 8 8 9 10 10 9 10 12 11 7 3 3 6 8 7 5 6 8 8 8 8 9 6 5 4 6 3 4 5 5 7 8 8 8 6 3 6 6 7 8 9
8 9 12 13 13 12 12 12 12 12 14 16 17 17 16 13 8 8 8 9 8 9 11 11 11 11 12 11 10 9 7 7 7 7 8 8 7 6 2 2 4 6 4 3 1 1 2 6 7 7 7 8 9 10 10 11 6 4 5 4 4 5 3 3 5 5 3 5 7 8 10 11 11 11
16 16 16 17 17 16 14 10 8 8 9 12 14 15 13 8 8 7 8 8 9 10 10 10 11 12 10 9 8 8 7 8 9 8 7 6 6 3 3 3 4 4 3 3 3 2 2 1 2 3 4 6 7 9 9 8 8 5 5 7 4 3 1 1 2 3 6 5 5 4 4 3 4 7
9 9 10 8 8 8 10 12 11 10 9 8 8 8 8 8 8 8 8 9 9 10 10 10 10 9 9 8 8 8 8 9 8 6 6 6 5 5 4 4 3 3 5 5 5 5 4 3 1 2 4 6 7 8 7 5 8 4 3 3 5 6 1 3 3 4 5 7 8 7 6 6 6 6
7 6 7 8 6 6 7 7 6 6 6 7 7 7 7 8 9 11 13 13 10 10 10 9 8 7 7 8 8 7 7 8 7 2 4 5 4 4 4 4 3 2 4 5 5 6 6 6 5 5 4 3 3 4 4 5 5 3 3 4 6 6 4 4 5 6 6 8 8 7 6 6 8 7
6 5 4 4 5 5 5 5 5 5 5 6 6 7 8 7 7 7 7 8 9 9 8 8 8 9 7 7 6 8 4 1 4 4 4 1 3 4 3 4 4 3 5 5 4 5 6 7 8 8 7 8 7 5 2 4 6 5 4 4 5 6 6 6 7 8 7 8 7 7 7 6 6 7
2 3 3 3 4 4 3 4 6 6 5 5 4 3 2 2 1 1 1 2 3 4 6 7 7 6 6 3 1 4 6 5 5 6 6 5 4 5 5 7 5 3 4 5 5 5 4 4 3 5 7 9 10 12 9 6 6 5 5 4 5 6 5 6 6 7 6 7 10 9 9 9 8 8
1 1 2 3 3 3 1 0 4 6 6 6 6 5 5 6 6 6 5 5 5 6 7 7 7 7 7 7 6 7 7 8 7 7 7 7 7 7 6 6 6 4 4 5 5 4 4 4 3 1 2 4 8 10 14 10 5 5 5 5 4 5 6 5 6 5 6 5 7 9 7 7 6 5
11 10 10 10 9 9 9 8 8 8 8 8 8 7 8 9 8 8 8 7 8 8 8 9 9 9 9 9 8 7 7 8 8 7 8 8 8 8 7 7 6 5 5 5 6 5 5 5 4 4 5 5 6 7 7 12 12 5 4 4 4 5 5 5 6 5 5 5 4 7 8 8 7 7
12 11 11 11 11 11 10 9 9 9 9 9 9 9 9 9 9 9 9 10 11 10 10 9 9 9 9 9 9 9 8 9 9 8 8 7 7 6 7 6 6 5 6 7 6 6 5 6 6 5 6 7 8 8 6 4 11 13 4 6 5 4 5 5 6 7 5 6 6 5 7 7 7 7
12 11 12 12 11 10 10 10 10 10 9 9 9 10 10 9 9 10 9 10 10 9 10 9 9 9 9 8 9 9 9 8 8 8 7 6 7 8 8 7 7 7 8 7 7 7 6 6 7 6 6 8 7 6 5 4 2 8 12 5 7 5 5 6 6 6 7 6 7 6 6 8 7 6
12 12 11 11 11 10 10 9 9 9 10 10 10 9 9 10 9 10 10 10 9 9 9 10 10 9 10 9 9 8 9 9 9 9 8 8 8 9 8 7 8 7 7 9 8 8 8 8 7 6 6 7 8 6 6 5 8 6 9 12 5 6 5 6 7 6 7 8 9 9 9 8 11 14
11 11 11 10 10 10 10 10 10 9 10 10 9 9 10 10 10 10 10 9 9 9 9 9 9 9 8 8 9 9 10 10 9 8 8 8 8 8 8 7 7 6 8 8 9 8 8 8 7 6 7 8 7 7 7 8 6 6 6 9 12 7 4 5 6 7 7 6 7 9 9 7 7 3
12 12 11 10 10 10 10 10 10 10 10 9 9 9 9 9 10 10 9 9 9 9 9 9 8 8 8 8 8 9 9 8 8 8 8 8 9 9 9 9 9 7 8 9 8 8 9 6 8 11 7 5 5 4 6 7 8 6 6 5 8 11 9 6 4 4 5 6 7 7 7 7 7 5
10 10 10 10 10 10 9 10 9 9 9 9 8 9 9 9 9 11 10 11 10 9 9 8 8 7 7 7 7 8 9 8 8 8 8 8 8 9 10 8 9 7 8 7 6 5 2 3 4 3 3 2 1 7 8 8 7 5 4 5 5 7 8 9 9 7 5 5 8 9 7 6 5 5
10 9 10 9 9 9 9 9 9 9 9 8 8 8 7 7 7 9 8 8 8 8 7 7 7 7 7 7 7 7 7 8 7 8 8 8 8 8 7 6 6 5 4 4 2 2 4 4 4 4 4 4 4 5 7 6 5 5 5 5 5 4 5 7 8 9 8 8 7 4 1 5 7 4
9 9 9 9 9 9 9 9 9 8 8 8 7 7 8 7 8 7 6 6 6 7 6 6 6 7 7 7 7 7 6 6 5 6 5 5 4 4 4 4 4 4 4 4 6 5 4 3 2 3 4 4 3 5 6 5 5 4 4 3 2 3 4 3 4 5 6 6 5 6 7 6 5 4
8 8 8 8 9 9 9 8 9 8 9 8 8 8 8 8 8 7 7 7 7 7 6 6 6 6 6 6 6 6 5 5 5 5 5 5 4 4 4 4 4 5 5 4 5 4 3 3 2 3 5 4 3 4 3 4 4 3 2 2 3 2 2 1 3 3 2 0 4 7 5 5 7 6
Wind_Direction
245 248 249 245 250 250 249 250 247 249 247 241 237 222 228 224 244 274 275 253 254 293 244 245 287 237 252 241 255 146 151 289 298 267 234 227 225 219 217 223 228 229 230 231 230 228 228 229 228 227 224 221 220 218 218 217 217 220 216 214 216 220 224 225 223 220 217 216 218 220 223 225 220 210
237 244 248 245 248 248 245 242 243 247 245 241 221 212 230 213 227 226 252 266 217 264 279 235 258 291 265 224 217 208 237 236 254 247 226 223 217 215 213 211 215 220 223 225 227 227 230 232 230 228 228 227 227 225 219 217 216 216 219 219 217 219 222 223 221 217 215 214 214 214 215 221 214 205
221 230 240 241 244 245 252 256 256 253 243 236 235 235 214 206 214 223 215 252 268 213 249 268 257 262 300 315 337 321 211 247 242 249 238 228 226 221 224 222 219 217 215 218 223 223 221 224 229 231 230 229 229 227 226 225 221 218 216 217 220 219 219 219 217 212 212 211 209 208 209 212 210 202
234 242 250 249 249 250 251 256 255 253 245 238 245 244 243 236 215 206 208 226 251 244 231 243 269 260 267 294 300 300 289 280 237 219 229 236 237 222 232 234 230 225 221 220 222 223 223 222 226 228 229 228 227 225 224 224 224 223 221 219 218 218 217 215 212 209 209 207 204 202 203 206 205 199
240 241 247 253 252 250 254 254 254 251 248 248 245 245 244 248 237 206 215 227 242 266 248 241 253 265 279 287 244 265 270 265 278 274 247 235 220 220 224 233 232 231 230 227 224 225 226 228 230 231 229 227 225 224 222 221 221 222 222 222 221 220 217 214 209 206 206 204 200 198 200 203 201 196
246 244 244 251 255 247 245 249 250 244 249 249 253 253 246 250 251 224 221 230 231 243 273 258 258 273 239 260 263 263 270 273 245 235 251 261 249 237 234 235 240 232 234 237 240 241 239 236 233 233 232 229 226 225 223 220 219 219 220 220 220 220 219 215 210 207 204 200 198 197 198 200 198 195
250 253 249 250 251 253 256 254 252 250 250 247 245 249 244 248 251 243 219 227 236 232 242 237 249 242 249 226 257 258 256 261 235 231 239 238 242 244 241 241 245 250 241 239 239 240 238 235 233 231 230 228 226 225 224 222 220 218 217 217 217 217 216 213 211 209 205 199 197 196 197 198 196 193
245 247 253 251 247 250 254 255 252 248 243 243 242 246 249 245 250 251 243 219 229 227 236 241 226 228 228 251 244 252 263 269 270 244 255 250 249 255 261 257 259 262 260 253 249 247 244 240 237 236 233 232 231 228 225 223 221 218 215 214 214 215 213 210 208 208 204 200 198 197 196 196 195 192
244 246 245 250 245 242 248 253 254 248 247 243 239 239 241 241 239 245 240 240 222 231 235 244 238 230 236 240 245 232 252 269 270 281 265 267 262 256 244 241 244 249 250 250 253 256 252 246 240 237 234 231 232 233 230 227 223 219 215 213 212 212 211 208 205 203 202 199 198 197 196 195 194 191
243 245 246 247 244 241 239 246 249 248 247 247 247 247 246 242 242 240 243 234 233 227 237 231 255 251 239 260 251 245 229 243 265 281 277 277 260 256 268 252 245 240 239 242 243 248 252 249 241 234 231 228 226 227 228 226 223 219 215 212 212 212 211 207 203 200 198 197 197 196 196 195 192 190
246 247 247 246 241 241 240 243 245 248 250 250 254 253 247 239 231 235 237 235 233 226 233 236 229 244 246 227 256 260 225 233 228 249 279 279 261 245 243 264 256 241 247 236 234 237 238 244 245 241 237 233 228 225 225 224 223 220 217 213 212 212 211 208 204 199 196 194 194 196 197 196 193 190
246 248 248 246 240 235 237 238 237 232 243 235 240 243 251 268 260 246 237 236 235 237 235 231 234 222 238 242 240 274 261 266 263 223 225 253 270 266 245 238 257 260 241 259 253 246 248 252 251 249 242 238 234 229 225 224 222 220 216 213 212 211 210 207 204 199 195 192 192 195 196 197 195 192
247 246 245 244 239 236 237 234 233 232 223 227 240 249 242 240 237 241 243 232 228 230 228 240 232 241 239 239 239 236 230 229 239 234 189 241 250 263 276 267 239 243 252 256 255 254 233 239 241 236 241 238 232 234 229 227 222 220 216 213 211 210 207 205 202 199 196 193 193 194 195 197 196 194
248 245 242 242 243 243 242 242 242 242 234 228 226 237 235 236 237 234 236 233 226 227 233 231 224 233 237 234 222 229 231 236 242 247 229 245 252 253 263 275 256 227 227 249 257 255 236 225 243 231 240 247 222 231 214 218 217 218 216 213 210 208 207 204 200 198 196 195 194 195 195 196 196 194
250 249 245 243 246 247 247 248 248 248 244 243 241 236 235 234 231 234 235 238 224 227 235 235 225 229 239 236 223 225 232 226 226 229 230 239 249 246 254 267 289 227 201 223 241 259 241 205 239 239 238 241 230 223 227 218 219 219 214 213 209 207 205 204 200 198 197 196 196 196 196 196 195 194
246 247 248 245 240 242 241 242 247 247 247 245 244 240 237 239 239 232 227 233 237 227 238 241 235 230 235 242 224 229 219 230 233 232 229 232 234 241 242 245 247 249 190 209 229 254 252 194 235 248 243 238 231 228 224 217 216 219 217 211 209 207 205 203 202 200 199 198 197 197 196 196 195 194
246 244 246 249 245 241 241 243 242 239 243 247 247 246 248 249 247 246 241 237 237 237 234 238 242 228 234 241 238 221 225 207 227 230 234 235 237 234 243 244 245 246 192 207 236 254 244 194 234 246 245 240 233 235 226 220 216 218 219 214 209 207 206 204 203 202 201 200 199 198 197 195 194 194
245 237 235 241 247 243 241 240 240 239 240 245 249 251 249 248 250 248 244 244 242 238 239 240 245 239 222 238 237 229 217 210 223 226 239 234 239 239 239 241 240 234 164 209 235 256 249 211 235 248 251 231 238 234 226 214 215 215 215 215 212 208 206 207 206 204 202 201 200 199 197 195 194 195
249 242 236 236 240 248 246 238 235 238 240 243 246 247 247 244 244 245 245 243 241 240 235 238 243 247 237 236 239 238 220 224 230 226 235 235 236 246 257 269 258 252 199 209 204 255 259 181 221 245 251 239 238 237 231 215 214 214 214 213 213 212 211 209 208 207 205 204 202 200 197 196 195 195
251 245 241 237 237 239 243 244 241 239 237 237 243 247 247 247 243 242 238 237 237 237 236 233 235 238 239 234 234 231 230 234 240 247 249 256 259 264 260 258 254 247 205 195 206 247 260 193 227 252 247 223 245 241 237 221 214 213 212 212 212 214 214 213 210 209 209 207 203 200 198 197 197 196
251 249 243 241 240 238 240 243 245 247 243 247 249 251 252 249 247 246 244 239 237 238 238 236 235 235 235 235 237 239 237 234 235 243 259 258 248 247 249 253 251 249 200 202 201 229 255 229 222 255 246 212 240 244 236 232 215 214 213 212 212 213 215 215 213 211 212 209 204 201 198 198 198 195
252 250 249 248 243 240 242 240 240 244 245 250 251 253 254 256 256 255 250 253 245 235 236 238 241 242 243 245 249 247 246 246 244 240 251 247 236 250 250 258 254 260 218 205 191 221 241 242 198 243 250 231 238 243 241 235 219 213 218 216 214 214 215 216 214 212 214 213 208 203 198 197 196 195
258 256 254 252 250 246 242 238 238 241 243 249 250 253 259 262 262 259 257 253 258 260 261 256 252 256 250 247 241 242 241 238 236 224 231 240 233 243 245 247 256 260 250 210 176 214 242 232 213 202 251 241 244 231 238 234 223 205 209 220 223 222 218 218 214 213 217 216 213 207 197 191 191 182
255 248 250 255 258 260 259 254 256 261 254 249 250 245 247 252 256 256 256 253 247 253 254 262 261 258 252 240 228 228 233 232 222 224 222 223 228 239 246 244 241 248 252 188 177 202 239 221 230 197 221 246 262 266 239 236 223 211 201 210 217 224 223 224 220 218 215 214 212 203 196 195 180 181
259 257 251 250 253 254 256 257 256 253 255 242 236 231 235 232 248 260 252 260 258 257 257 254 252 249 244 240 232 232 231 229 228 230 226 223 217 217 232 241 242 248 246 225 172 200 234 209 229 212 232 224 244 258 235 243 245 224 212 207 220 225 211 221 221 222 220 220 209 203 201 193 184 186
252 250 252 249 251 257 261 262 264 262 256 241 230 234 234 253 267 264 259 262 262 255 257 258 255 250 242 243 242 241 239 235 229 227 230 227 224 218 220 226 233 249 247 212 175 196 216 240 218 222 226 230 245 237 250 240 224 222 212 215 222 224 200 213 211 218 207 207 214 211 205 195 190 194
283 282 275 269 268 265 264 262 257 250 247 238 239 243 246 247 254 264 265 266 265 259 254 252 251 250 246 244 242 238 240 238 231 232 233 237 236 233 230 228 229 235 250 183 194 207 225 236 181 214 226 230 246 246 239 244 252 228 228 224 225 224 211 207 211 214 210 204 209 205 202 195 195 194
269 268 263 262 263 262 259 255 248 249 254 254 260 261 258 252 246 247 252 245 246 252 255 252 252 251 248 246 244 238 233 235 230 232 236 240 239 241 238 234 235 235 228 180 216 214 209 224 223 217 223 235 240 242 255 243 241 190 222 230 246 233 218 211 216 220 216 199 154 174 163 184 196 190
270 271 278 284 284 281 276 269 269 270 267 262 260 257 254 249 248 240 238 243 241 243 244 246 249 249 245 241 243 246 239 239 243 244 248 241 242 241 233 71 59 46 46 55 59 349 271 217 227 232 229 233 237 245 244 253 236 219 202 182 240 228 226 232 225 211 140 131 165 176 184 182 179 178
271 270 269 268 269 270 267 264 254 252 254 252 249 248 243 236 232 229 231 237 235 240 244 243 244 246 251 250 250 253 248 246 245 242 244 238 238 175 129 94 45 44 58 63 47 23 33 12 310 321 285 261 246 250 248 252 255 222 176 203 199 47 37 99 121 121 143 140 128 109 60 93 154 160
263 258 262 266 263 263 262 259 259 256 259 258 257 258 251 243 239 237 235 236 239 242 245 246 246 251 251 255 254 247 241 241 242 222 234 235 231 197 174 125 93 52 48 41 36 33 27 26 34 213 234 257 262 263 276 266 259 234 196 184 170 202 148 82 107 110 104 107 103 97 102 110 117 105
265 275 282 280 291 284 276 265 259 257 253 256 259 255 247 242 237 237 235 238 236 239 240 248 253 254 247 247 240 239 236 235 238 207 212 216 212 150 125 114 123 125 61 49 42 38 43 39 42 38 43 13 304 322 28 36 14 10 78 58 75 78 94 91 85 77 82 96 94 104 118 126 119 108
292 288 276 266 268 258 260 268 268 266 263 258 255 257 258 248 245 242 235 234 235 236 236 237 239 243 242 243 239 235 228 124 103 133 144 83 115 109 103 107 113 98 83 68 56 46 46 48 56 66 66 53 36 17 38 62 33 31 60 64 82 82 84 96 103 113 112 100 104 114 112 107 100 111
271 250 259 254 253 259 261 270 265 265 257 265 272 283 316 331 330 301 269 271 268 242 231 235 237 244 233 222 137 84 88 76 58 51 73 77 78 81 85 92 80 62 82 81 60 51 50 60 80 80 77 72 62 48 38 59 63 42 40 44 75 98 94 105 116 124 128 133 134 127 131 129 130 137
185 242 245 242 234 238 221 30 18 37 41 40 43 38 36 34 31 34 36 28 44 52 55 59 64 62 64 63 69 79 76 75 67 64 64 79 81 84 80 72 60 45 48 56 48 34 45 30 15 33 44 48 62 53 44 39 63 54 62 46 49 83 96 90 102 99 104 117 122 125 122 123 125 125
42 39 47 50 49 49 49 46 48 46 46 42 41 37 41 34 28 31 37 34 48 50 56 60 61 64 66 68 66 66 70 73 70 68 65 65 75 77 74 73 75 57 41 42 47 29 36 40 33 56 65 42 59 51 34 23 36 17 56 66 40 68 77 83 85 88 93 86 96 117 116 113 106 115
45 43 44 47 46 45 46 42 46 48 44 46 44 43 44 42 36 37 35 42 51 48 51 58 58 58 63 67 68 67 66 69 73 67 66 60 67 72 79 73 66 65 61 48 42 35 28 42 35 48 76 71 62 65 49 346 26 26 34 89 62 57 85 84 78 70 62 84 71 70 104 105 92 101
44 41 44 43 44 43 45 43 44 46 45 46 48 47 46 44 42 40 40 48 47 50 50 55 58 61 62 61 69 69 67 65 69 65 62 55 59 60 59 64 60 54 56 50 45 40 40 47 46 42 67 85 88 67 66 16 22 24 20 43 89 70 69 80 72 76 71 64 77 77 87 92 99 101
44 40 39 39 37 38 42 42 45 47 46 46 45 46 47 46 44 45 45 47 45 50 53 55 53 54 62 63 60 62 64 63 64 67 66 65 63 65 61 61 61 50 60 60 50 46 45 51 49 51 56 77 80 78 70 74 56 46 35 32 70 82 51 83 88 82 85 87 82 72 67 78 83 87
43 42 38 37 36 36 39 38 40 41 48 49 50 49 53 52 50 48 47 47 48 48 52 54 55 55 54 56 65 67 63 61 61 60 61 64 66 68 67 60 61 63 69 64 61 51 52 51 49 55 73 76 92 97 103 88 81 54 45 39 50 70 95 99 93 103 95 98 104 99 102 95 92 65
38 38 33 30 32 31 36 37 37 39 43 43 49 50 55 59 59 59 59 57 52 50 49 45 44 46 47 47 54 71 75 67 63 63 64 66 67 66 67 71 63 47 63 64 64 66 65 68 82 83 80 93 107 124 86 76 69 55 52 44 55 73 67 65 100 106 111 115 102 101 100 100 103 90
36 35 29 26 28 25 28 35 35 38 37 35 37 44 50 53 53 55 59 59 62 65 64 56 47 44 41 41 48 56 69 70 70 66 62 61 64 65 61 67 77 67 67 66 63 69 50 28 66 58 51 44 45 79 74 82 88 74 62 59 48 54 77 86 81 84 102 116 124 121 108 87 83 93
36 33 29 24 28 27 25 26 28 29 33 32 32 29 33 37 43 47 52 53 52 54 52 51 49 55 53 50 49 51 60 65 67 69 66 65 69 73 71 69 73 76 81 93 92 76 58 69 59 58 45 49 41 71 96 94 90 89 80 75 70 62 53 69 86 88 77 70 68 76 91 147 140 153
32 32 28 25 26 26 26 25 24 24 25 27 26 27 32 33 37 34 36 41 46 48 46 51 49 56 63 65 64 62 61 67 67 72 73 71 69 71 72 61 56 55 51 49 54 58 69 63 49 60 71 52 40 78 92 91 79 77 80 73 71 82 85 77 74 57 54 47 53 78 81 54 39 147
32 33 31 27 28 26 26 24 26 22 24 21 26 30 29 33 36 31 28 27 35 39 42 42 45 44 49 52 61 64 58 64 65 57 57 55 52 51 51 50 46 41 40 37 56 37 30 50 36 42 58 50 43 77 86 94 104 100 80 82 88 69 52 34 89 116 119 252 347 11 25 44 55 86